Hamsat - Orbit

View from above orbital plane
View from above orbital plane
View from above satellite
View from above satellite

Ground track
Ground track

The orbit data is extracted from the following two-line orbital elements,

1 28650U 05017B   13137.65265209  .00002089  00000-0  25663-3 0  4241
2 28650 097.5692 157.8217 0026024 024.9889 087.9204 14.83823078434551
Epoch (UTC): 17 May 2013 15:39:49
Eccentricity: 0.0026024
inclination: 97.5692°
perigee height: 599 km
apogee height: 635 km
right ascension of ascending node: 157.8217°
argument of perigee: 24.9889°
revolutions per day: 14.83823078
mean anomaly at epoch: 87.9204°
orbit number at epoch: 43455

The dashed part of the orbit path shows where the satellite is in the earth's shadow,  

Developed and maintained by Chris Peat, Heavens-Above GmbH. Please read the updated FAQ before sending e-mail. Imprint. DLR